FENGYUN 1C DEB

Satellite information

Favourite Embed

Satellite Type and Status

DEBRISIN ORBIT

Key statistics

Satellite FENGYUN 1C DEB at a glance.

Uptime

9616

Days in orbit

Revolutions

≈ 14.3

Per day

Orbit

SSO

Sun Synchronous Orbit

Inclination

98.8

Latest

Satellite identification and parameters

Extended collection of information and parameters for FENGYUN 1C DEB.

Object identification

Identified? True

Debris? True

Object name: FENGYUN 1C DEB

International designator: 1999-025EGY

Object number (NORAD): 37430

Object ID (CCSDS): 37430

Country: PEOPLES REPUBLIC OF CHINA (PRC)

Current information (Y/N): Y

RCS size: SMALL

Orbital parameters

Period: 100.859 minutes

Inclination: 98.7717 deg

SMA: 7177.47 km

Apoapsis: 811.811 km

Periapsis: 786.858 km

RAAN: 320.1502 deg

Eccentricy: 0.00173823

Argument of periapsis: 3.3528 deg

Mean anomaly: 356.7766 deg

Mean motion: 14.27728809 rev/day

Mean motion (dot): 0.00007935 rev/day2

B* drag term: 0.0032252457 1/REarth

Two-line elements (TLE)

Creation date: Sept. 4, 2025, 4:29 a.m.

Reference frame: TEME

Reference center: EARTH

Epoch: Sept. 3, 2025, 11:34 a.m. UTC

TLE line 0: 0 FENGYUN 1C DEB

TLE line 1: 1 37430U 99025EGY 25246.48221951 .00007935 00000-0 32252-2 0 9993

TLE line 2: 2 37430 98.7717 320.1502 0017382 3.3528 356.7766 14.27728809602706

Live tracking on map

Real-time ground track for satellite FENGYUN 1C DEB.

In-orbit conjunctions

A list of the most updated potential collisions computed for object FENGYUN 1C DEB.

Target Orbit TCA Probability of collision Miss distance Type
THOR BURNER 2 R/B SSO 2025-04-29 12:06:47 0.0001222097 759.0 (m) ROCKET BODY
FENGYUN 1C DEB SSO 2024-11-15 08:22:40 0.0001612545 394.0 (m) DEBRIS

Associated space launch

Chinese polar orbiting meteorological satellite

FENGYUN 1C DEB was lifted into orbit during the mission ‘Long March 4B | Feng Yun 1C’, on board a Long March 4B space rocket.

The launch took place on May 10, 1999, 1:33 a.m. from Launch Complex 7.

For more information about the launch, click the button.

Launch to space Long March 4B | Feng Yun 1C
Long March 4B | Feng Yun 1C

Agency: N/A

Status: Launch Successful

Launch date: May 10, 1999, 1:33 a.m. UTC

Rocket: Long March 4B

Launch pad: Launch Complex 7

Location: Taiyuan Satellite Launch Center, People's Republic of China

...

Latest news about this satellite

There are no fresh news available about this satellite. Check back as we update our databases every day.


Newsletter sign-up

Weekly statistics, charts and insights to help you stay on top of the space industry.